[[{"header":{"parameterUnit":"m.s-1","parameterCategory":1,"la1":30.2991,"la2":30.254,"lo1":-89.0895,"lo2":-89.0444,"dy":0.0017,"dx":0.0017,"nx":28,"ny":28,"refTime":"2024-08-12T03:00:00:Z","depth":0,"parameterNumber":2,"parameterNumberName":"U-component_of_WINDS"},"data":[0,0,0,0,0,0,0,0,0,0,0,0,0,0,0,0,0,0,0,0,0,0,0,0,0,0,0,0,0,0,0,0,0,0,0,0,0,0,0,0,0,0,0,0,0,0,0,0,0,0,0,0,0,0,0,0,0,0,1.9868,1.9868,0,1.9873,1.9873,1.9873,1.98,1.9798,1.9796,1.9794,1.9802,1.9804,1.9806,0,0,0,0,0,0,0,0,0,0,0,0,0,1.9799,1.9801,1.9868,1.9868,1.9868,1.9873,1.9873,1.9873,1.98,1.9798,1.9795,1.9793,1.9802,1.9804,1.9807,0,0,0,0,0,0,0,0,0,0,0,0,0,1.982,1.9802,1.9868,1.9832,1.9829,1.9873,1.9873,1.9873,1.9801,1.9798,1.9795,1.9792,1.9801,1.9804,1.9807,1.9887,0,0,1.9817,1.9818,0,0,0,0,0,0,0,0,1.9818,1.9822,1.9838,1.9835,1.9831,1.9833,1.9852,1.9878,1.9801,1.9812,1.9794,1.979,1.9815,1.9817,1.9825,1.9887,1.9887,1.9817,1.9819,1.982,1.9821,0,0,0,0,0,0,0,1.9817,1.9822,1.987,1.9838,1.9834,1.9817,1.9817,1.9857,1.983,1.981,1.9805,1.9807,1.9813,1.9822,1.9824,1.9888,1.9817,1.982,1.9821,1.9823,2.0018,2.0021,0,0,0,0,0,0,1.982,1.9821,1.987,1.987,1.9817,1.9821,1.982,1.9835,1.983,1.9826,1.9809,1.9803,1.9818,1.9821,1.9824,1.9919,1.982,1.9823,1.9825,2.0015,2.0019,2.0023,0,0,0,0,0,0,1.9819,1.9825,1.987,1.9844,1.9849,1.9825,1.9843,1.9837,1.9846,1.9829,1.9824,1.9823,1.9816,1.982,1.9872,1.9918,1.9824,1.9827,2.0011,2.0016,2.0021,2.0107,0,0,0,0,0,0,1.9817,1.9825,1.9854,1.9845,1.985,1.9917,1.9846,1.9839,1.9851,1.9843,1.984,1.9837,1.9814,1.9868,1.9875,1.992,1.983,2.0007,2.0013,2.0019,2.01,2.0115,2.0127,0,0,0,0,0,1.9815,1.9878,1.9856,1.9862,1.9886,1.9919,1.9922,1.9893,1.9855,1.9885,1.9874,1.9837,1.9912,1.9874,1.9881,1.9928,2.0004,2.0011,2.0019,2.0094,2.0112,2.0127,0,0,0,0,0,0,1.9894,1.9877,1.9851,1.9914,1.9918,1.9907,1.9943,1.9912,1.9929,1.9921,1.9885,1.9885,1.9944,1.9941,1.9899,2.0006,1.9951,1.9961,2.0006,2.0023,2.0036,2.0035,1.9832,0,0,0,0,0,1.9918,1.9946,1.993,1.9986,1.999,1.9967,1.998,1.9957,1.9961,1.9963,1.9956,1.9963,1.9988,2.0005,2.0027,2.0099,2.0099,2.0136,2.0149,2.016,2.0169,2.0209,2.0226,2.0047,2.0047,2.0047,0,0,1.9969,1.9963,1.9983,2.0002,2.0003,2.0034,1.9969,2.0003,2.0027,1.9969,2.0018,2.0013,2.0018,2.0082,2.0109,2.0081,2.0218,2.017,2.0179,2.0181,2.0219,2.0236,2.0251,2.0052,2.0051,2.005,0,0,2.0079,2.0076,2.0124,2.0126,2.0129,2.0113,2.0125,2.0118,2.0113,2.0161,2.0119,2.0146,2.019,2.0195,2.0204,2.0318,2.0285,2.0326,2.0396,2.0435,2.045,2.0462,2.0504,2.0519,2.0334,2.0335,2.0335,0,2.0142,2.0185,2.0152,2.0191,2.0201,2.015,2.0199,2.0203,2.0214,2.0223,2.0191,2.0245,2.0245,2.031,2.0338,2.0346,2.036,2.0326,2.045,2.0462,2.0473,2.0513,2.0529,2.034,2.0339,2.0339,2.0338,0,2.0264,2.0296,2.0334,2.0345,2.0359,2.0403,2.0378,2.0397,2.0374,2.0362,2.0414,2.0412,2.0433,2.0447,2.0424,2.0509,2.0492,2.0456,2.04,2.0496,2.0533,2.0548,2.0347,2.0345,2.0344,2.0342,0,0,2.0423,2.0415,2.043,2.0435,2.0435,2.0459,2.0501,2.0521,2.0539,2.0549,2.0584,2.0623,2.059,2.06,2.0578,2.0613,2.0705,2.0572,2.0572,2.0598,2.0801,2.0829,2.0847,2.0683,2.0686,2.0688,2.0801,0,2.053,2.06,2.0573,2.0646,2.0676,2.0628,2.0665,2.067,2.0661,2.0686,2.0676,2.0704,2.0658,2.0664,2.0696,2.0687,2.0746,2.0678,2.0718,2.072,2.0719,2.0866,2.0895,2.1002,2.0815,2.0817,2.0819,0,2.0664,2.0678,2.0755,2.0751,2.0762,2.0796,2.0813,2.0837,2.0843,2.0833,2.0846,2.0817,2.086,2.0803,2.0863,2.0818,2.0833,2.0831,2.0835,2.0838,2.0776,2.0875,2.1035,2.1052,2.0841,2.0839,2.0838,0,2.0774,2.0812,2.0863,2.0869,2.0865,2.089,2.089,2.0892,2.0907,2.0923,2.0932,2.0953,2.0965,2.0983,2.0961,2.0922,2.1025,2.0967,2.102,2.1021,2.1045,2.1044,2.1211,2.1053,2.1052,2.1052,2.1052,0,2.0897,2.0946,2.0913,2.0944,2.0999,2.0967,2.1022,2.1017,2.102,2.1051,2.1011,2.1042,2.101,2.1038,2.1022,2.1075,2.108,2.1076,2.1071,2.108,2.1081,2.1089,2.1082,2.1056,2.1055,2.1055,2.1054,0,2.1028,2.1008,2.1061,2.1053,2.1053,2.1093,2.1088,2.1118,2.1106,2.1146,2.1153,2.1135,2.1166,2.1146,2.1178,2.1167,2.1237,2.1221,2.1235,2.1231,2.1286,2.1282,2.1466,2.149,2.1315,2.1317,2.1318,0,2.1109,2.1145,2.1142,2.116,2.1162,2.1191,2.1206,2.1177,2.1194,2.1204,2.1234,2.1261,2.1282,2.1334,2.1325,2.1349,2.1334,2.1397,2.1338,2.1346,2.1337,2.1336,2.134,2.141,2.1412,2.1413,2.1415,0,2.1254,2.1243,2.1265,2.1285,2.1303,2.1318,2.1329,2.1346,2.1317,2.1339,2.137,2.1386,2.1418,2.1447,2.1468,2.1469,2.1438,2.1433,2.1447,2.1457,2.1465,2.1463,2.1269,2.1429,2.1428,2.1427,2.1426,2.1426,2.1364,2.1395,2.1398,2.1424,2.143,2.1442,2.147,2.1462,2.1487,2.151,2.1492,2.153,2.1536,2.156,2.1566,2.1596,2.1571,2.1591,2.1596,2.1602,2.161,2.1459,2.16,2.1599,2.1599,2.1598,2.1598,0,2.1508,2.1508,2.1533,2.155,2.1572,2.1539,2.1551,2.1571,2.1605,2.1613,2.1634,2.1671,2.1699,2.1692,2.1718,2.1743,2.173,2.1751,2.1749,2.1751,2.163,2.1616,2.1761,2.1761,2.1761,2.1761,2.1761,2.1761,2.1586,2.1637,2.1627,2.1681,2.1681,2.1717,2.1726,2.1737,2.1744,2.1787,2.1809,2.1804,2.1807,2.1833,2.1858,2.1855,2.1867,2.1894,2.1887,2.1775,2.1759,2.1743,2.173,2.1897,2.1897,2.2004,2.2005,2.2006]},{"header":{"parameterUnit":"m.s-1","parameterCategory":1,"la1":30.2991,"la2":30.254,"lo1":-89.0895,"lo2":-89.0444,"dy":0.0017,"dx":0.0017,"nx":28,"ny":28,"refTime":"2024-08-12T03:00:00:Z","depth":0,"parameterNumber":3,"parameterNumberName":"V-component_of_WINDS"},"data":[0,0,0,0,0,0,0,0,0,0,0,0,0,0,0,0,0,0,0,0,0,0,0,0,0,0,0,0,0,0,0,0,0,0,0,0,0,0,0,0,0,0,0,0,0,0,0,0,0,0,0,0,0,0,0,0,0,0,-1.2976,-1.2976,0,-1.2951,-1.2951,-1.2951,-1.2938,-1.2938,-1.2938,-1.2938,-1.2911,-1.291,-1.2909,0,0,0,0,0,0,0,0,0,0,0,0,0,-1.3012,-1.3012,-1.2976,-1.2976,-1.2976,-1.2951,-1.2951,-1.2951,-1.2938,-1.2938,-1.2938,-1.2938,-1.2911,-1.291,-1.2909,0,0,0,0,0,0,0,0,0,0,0,0,0,-1.2993,-1.3011,-1.2976,-1.2966,-1.2965,-1.2951,-1.2951,-1.2951,-1.2938,-1.2938,-1.2938,-1.2938,-1.2911,-1.291,-1.2909,-1.2903,0,0,-1.2906,-1.2905,0,0,0,0,0,0,0,0,-1.2994,-1.2992,-1.2968,-1.2967,-1.2966,-1.2948,-1.2954,-1.2934,-1.2938,-1.2948,-1.2938,-1.2938,-1.2923,-1.2921,-1.2916,-1.2902,-1.29,-1.2906,-1.2905,-1.2905,-1.2904,0,0,0,0,0,0,0,-1.2995,-1.2993,-1.2966,-1.2968,-1.2966,-1.2963,-1.296,-1.295,-1.2936,-1.2947,-1.2946,-1.2944,-1.2922,-1.2917,-1.2915,-1.29,-1.2906,-1.2905,-1.2904,-1.2904,-1.2881,-1.2881,0,0,0,0,0,0,-1.2998,-1.2994,-1.2967,-1.2965,-1.298,-1.2962,-1.2959,-1.2953,-1.2936,-1.2933,-1.2944,-1.2943,-1.2919,-1.2917,-1.2914,-1.2907,-1.2905,-1.2904,-1.2903,-1.2881,-1.2881,-1.2881,0,0,0,0,0,0,-1.2999,-1.2996,-1.2968,-1.2979,-1.2976,-1.2962,-1.2955,-1.2953,-1.2948,-1.2933,-1.2931,-1.2941,-1.2919,-1.2916,-1.2906,-1.2906,-1.2903,-1.2902,-1.2881,-1.2881,-1.2881,-1.2892,0,0,0,0,0,0,-1.3,-1.2997,-1.2994,-1.2979,-1.2975,-1.296,-1.2955,-1.2952,-1.2946,-1.2945,-1.293,-1.2928,-1.2919,-1.2908,-1.2905,-1.2904,-1.2901,-1.2881,-1.2881,-1.2881,-1.2891,-1.2892,-1.2893,0,0,0,0,0,-1.3002,-1.2997,-1.2994,-1.2991,-1.2972,-1.296,-1.2958,-1.2948,-1.2946,-1.2944,-1.2935,-1.2928,-1.2907,-1.2907,-1.2904,-1.2903,-1.2881,-1.2881,-1.2881,-1.2891,-1.2892,-1.2893,0,0,0,0,0,0,-1.3011,-1.2995,-1.2991,-1.2982,-1.2973,-1.2958,-1.2955,-1.2949,-1.294,-1.2939,-1.2927,-1.2924,-1.2916,-1.2908,-1.2909,-1.2897,-1.2893,-1.2892,-1.2902,-1.2903,-1.2903,-1.2905,-1.29,0,0,0,0,0,-1.3012,-1.3005,-1.2991,-1.2984,-1.298,-1.2968,-1.2963,-1.2957,-1.2946,-1.2942,-1.2932,-1.2922,-1.2913,-1.2907,-1.2898,-1.289,-1.2887,-1.2888,-1.2889,-1.289,-1.2889,-1.2886,-1.2886,-1.2881,-1.2881,-1.2881,0,0,-1.3014,-1.3004,-1.3,-1.2986,-1.2978,-1.2971,-1.2965,-1.2957,-1.2952,-1.2941,-1.2931,-1.2924,-1.2912,-1.2904,-1.29,-1.2897,-1.289,-1.289,-1.289,-1.289,-1.2886,-1.2887,-1.2887,-1.2881,-1.2881,-1.2881,0,0,-1.3014,-1.3006,-1.3,-1.2993,-1.2981,-1.2974,-1.2972,-1.2959,-1.2954,-1.2945,-1.2937,-1.293,-1.2915,-1.2907,-1.2901,-1.2901,-1.2895,-1.2898,-1.2902,-1.2899,-1.2899,-1.29,-1.2901,-1.2901,-1.2898,-1.2898,-1.2898,0,-1.3017,-1.3006,-1.2997,-1.2991,-1.2985,-1.2976,-1.297,-1.2963,-1.2949,-1.2946,-1.2944,-1.2926,-1.2917,-1.2907,-1.2907,-1.2902,-1.2901,-1.29,-1.29,-1.29,-1.2901,-1.2901,-1.2901,-1.2898,-1.2898,-1.2898,-1.2898,0,-1.3012,-1.3005,-1.3001,-1.299,-1.2983,-1.2977,-1.2967,-1.2962,-1.2957,-1.295,-1.2941,-1.2931,-1.292,-1.2917,-1.2911,-1.2908,-1.2907,-1.2903,-1.2899,-1.2902,-1.2902,-1.2902,-1.2899,-1.2899,-1.2899,-1.2899,0,0,-1.3016,-1.3001,-1.2999,-1.2995,-1.2982,-1.2977,-1.297,-1.2961,-1.2958,-1.2949,-1.2944,-1.2932,-1.2929,-1.2922,-1.2915,-1.2912,-1.2914,-1.2909,-1.2908,-1.2911,-1.2911,-1.2914,-1.2915,-1.291,-1.291,-1.291,-1.2912,0,-1.3015,-1.3004,-1.2996,-1.2988,-1.2982,-1.2974,-1.2969,-1.2961,-1.2955,-1.2949,-1.2941,-1.2934,-1.2929,-1.2926,-1.2923,-1.2915,-1.2914,-1.2914,-1.2906,-1.2906,-1.291,-1.2915,-1.2918,-1.292,-1.2912,-1.2912,-1.2912,0,-1.3011,-1.3004,-1.2996,-1.2986,-1.2983,-1.2979,-1.297,-1.2964,-1.2956,-1.2951,-1.2945,-1.2939,-1.2933,-1.293,-1.2921,-1.2922,-1.2918,-1.2914,-1.2913,-1.2912,-1.2909,-1.2915,-1.292,-1.2921,-1.2912,-1.2912,-1.2912,0,-1.3016,-1.3004,-1.2998,-1.2994,-1.2982,-1.298,-1.2975,-1.2966,-1.2961,-1.2954,-1.2951,-1.2943,-1.2938,-1.2932,-1.2924,-1.2923,-1.2917,-1.2913,-1.2914,-1.2914,-1.2913,-1.2913,-1.2919,-1.291,-1.291,-1.291,-1.291,0,-1.3016,-1.3011,-1.3001,-1.2997,-1.2992,-1.2984,-1.2979,-1.2973,-1.2966,-1.2961,-1.2954,-1.295,-1.2939,-1.2934,-1.2927,-1.2922,-1.292,-1.2916,-1.2915,-1.2917,-1.2918,-1.2915,-1.2914,-1.291,-1.291,-1.291,-1.291,0,-1.302,-1.3013,-1.3006,-1.2996,-1.2993,-1.299,-1.2982,-1.2978,-1.2972,-1.2967,-1.2965,-1.2955,-1.2948,-1.294,-1.293,-1.2926,-1.2922,-1.2919,-1.2925,-1.2924,-1.2926,-1.2926,-1.293,-1.2931,-1.2921,-1.2921,-1.2921,0,-1.302,-1.3017,-1.3007,-1.3004,-1.3,-1.2994,-1.299,-1.2982,-1.2978,-1.2969,-1.2967,-1.296,-1.2954,-1.2944,-1.2936,-1.2929,-1.2927,-1.2929,-1.2925,-1.2929,-1.2928,-1.2928,-1.2928,-1.2929,-1.2929,-1.293,-1.293,0,-1.3022,-1.3019,-1.3014,-1.3008,-1.3003,-1.2998,-1.2992,-1.2989,-1.298,-1.2976,-1.297,-1.2966,-1.2957,-1.2951,-1.2943,-1.2938,-1.2933,-1.2931,-1.2931,-1.2934,-1.2938,-1.2936,-1.2928,-1.2931,-1.2931,-1.2931,-1.2931,-1.293,-1.3025,-1.3022,-1.3015,-1.301,-1.3005,-1.3,-1.2997,-1.2992,-1.2986,-1.2979,-1.2975,-1.2969,-1.2962,-1.2952,-1.2947,-1.2943,-1.294,-1.294,-1.294,-1.294,-1.2942,-1.2938,-1.2941,-1.2941,-1.2941,-1.2941,-1.2941,0,-1.3027,-1.3023,-1.3018,-1.3011,-1.3007,-1.3003,-1.2997,-1.2994,-1.299,-1.2984,-1.2979,-1.2973,-1.2967,-1.2959,-1.2953,-1.2951,-1.2949,-1.295,-1.295,-1.2949,-1.2943,-1.2944,-1.2952,-1.2952,-1.2952,-1.2952,-1.2952,-1.2952,-1.3027,-1.3023,-1.302,-1.3014,-1.3009,-1.3005,-1.3002,-1.2997,-1.2993,-1.2987,-1.2982,-1.2978,-1.2972,-1.2965,-1.296,-1.2958,-1.2957,-1.2959,-1.2956,-1.2951,-1.2949,-1.2949,-1.295,-1.2958,-1.2958,-1.2962,-1.2962,-1.2962]}]]